星链-1560 (STARLINK-1560 )

导读 | 豆包AI

STARLINK-1560是美国太空探索技术公司Starlink星座的卫星,于2020年8月7日发射入轨,属于星链低轨互联网星座组网卫星。星链计划旨在为全球提供覆盖偏远地区的高速宽带互联网服务,该卫星是星链早期批量部署的卫星之一,支撑星座全球通信覆盖能力构建。

基本信息
目录编号:
46036
目录名称:
STARLINK-1560
国际标识:
2020-055K
轨道中心:
EARTH
卫星名称:
星链-1560
卫星全名:
星链-1560 (STARLINK-1560 )
卫星状态:
在轨 (已飞行2066 天)
发射日期:
2020-08-07 UTC
国别 :
美国 (US)
星等 :
--
轨道信息
数据来源 国际轨道数据
星历时间: 2026-04-03T19:36:23+0800
14小时前
查看轨道信息
半长轴: 6855.863km
偏心率: 0.0001541
轨道倾角: 53.156°
近地点辐角 89.131°
升交点赤经 11.432°
平近点角 270.987°
近地点: 476.669km
远地点: 478.783km
周期: 94.157分钟
每日圈数: 15.293596
详细信息
固有亮度:
5
最大亮度:
2.5
卫星平台:
Starlink V1.0
覆盖范围:
全球
运营商:
太空探索技术公司
运营商所在国:
美国
制造商(研发单位):
太空探索技术公司
制造商所在国:
美国
使用方式:
暂无
卫星简介
星链(Starlink)计划是由太空探索技术公司(SpaceX)提出的一个巨型低轨卫星互联网星座项目,计划在2019年至2024年间在太空搭建由约1.2万颗卫星组成的“星链”网络,其中1584颗将部署在地球上空550千米处的近地轨道,并从2020年开始工作。该卫星仍在工作。
2D轨道图
3D轨道图
轨道高度分析图
轨道倾角分析图
轨道综合分析图
查看轨道综合分析图